User: anonymous   Login
Location: Unspecified
(0.0000°N, 0.0000°E)
Time: 17:48:36
(UTC+00:00)
Language:

APRIZESAT 3 - Orbit

View from above orbital plane
View from above orbital plane
View from above satellite
View from above satellite

Ground track
Ground track

The orbit data is extracted from the following two-line orbital elements,

1 35686U 09041F   16040.15714636  .00000508  00000-0  61199-4 0  9999
2 35686  98.2310  14.2329 0073701 178.0726 182.0787 14.86743708353779
Epoch (UTC): 09 February 2016 03:46:17
Eccentricity: 0.0073701
inclination: 98.2310°
perigee height: 556 km
apogee height: 659 km
right ascension of ascending node: 14.2329°
argument of perigee: 178.0726°
revolutions per day: 14.86743708
mean anomaly at epoch: 182.0787°
orbit number at epoch: 35377

The dashed part of the orbit path shows where the satellite is in the earth's shadow,  

DLR